User: anonymous   Login
Location: Unspecified
(0.0000°N, 0.0000°E)
Time: 21:54:12
(UTC+00:00)
Language:

INMARSAT 5-F1 - Orbit

View from above orbital plane
View from above orbital plane
View from above satellite
View from above satellite

Ground track
Ground track

The orbit is defined by the following mean orbital elements,

1 39476U          26144.95454330 +.00000000 +00000-0 +00000-0 0 00002
2 39476   0.0156 344.8237 0000412 334.0868 329.9068  1.00272076    05
Epoch (UTC): 24 May 2026 22:54:32
Eccentricity: 0.0000412
inclination: 0.0156°
perigee height: 35785 km
apogee height: 35788 km
right ascension of ascending node: 344.8237°
argument of perigee: 334.0868°
revolutions per day: 1.00272076
mean anomaly at epoch: 329.9068°

The dashed part of the orbit path shows where the satellite is in the earth's shadow,  

DLR